Location: Schommer Observatory
(40.5200°N, 74.4500°W)
Time: 19:51:16
(UTC-05:00)

Hubble Space Telescope - Pass Details

Date: 18 November 2017
Orbit: 537 x 541 km, 28.5° (Epoch: 18 November)

Event Time Altitude Azimuth Distance (km) Brightness Sun altitude
Rises 06:04:36 0° 235° (SW) 2,669 4.0 -8.5°
Reaches altitude 10° 06:07:39 10° 211° (SSW) 1,779 3.3 -7.9°
Maximum altitude 06:10:00 15° 176° (S) 1,494 3.3 -7.5°
Drops below altitude 10° 06:12:22 10° 141° (SE) 1,781 4.5 -7.1°
Sets 06:15:25 0° 118° (ESE) 2,673 6.7 -6.5°
